Theta_e
329 331 330 331 330 330 330 331 333 334 336 336 337 337 335 336 337 337 337 337 336 337 338 337 337 337 336 336 334 329 326 325 324 324 324 325 327 329 335 337 336 335 334 334 334 333 333 333 332 331 331 331 331 331 330 330 329 327 327 326 325 325 325 325 325 324 324 324 324 324 324 323 323 322 322 322 322 322 321 321 320 320 320 320 320
330 329 329 330 329 329 331 331 331 333 335 335 337 337 336 335 334 335 335 335 335 336 338 337 337 338 337 337 336 335 330 326 324 324 324 326 327 329 334 338 337 336 335 334 335 335 334 334 333 333 332 331 331 331 331 330 330 329 328 327 326 325 325 325 325 324 324 324 324 324 324 323 323 323 323 323 322 322 322 321 321 321 320 320 320
330 330 332 332 332 331 331 331 331 332 333 334 336 337 336 336 335 335 335 334 335 336 336 336 336 336 337 337 337 335 332 329 326 325 324 325 326 329 330 338 339 337 335 334 334 336 335 334 334 334 333 333 332 332 332 331 331 330 329 329 327 326 326 326 325 325 325 324 324 324 324 324 323 323 323 323 323 322 322 322 322 321 321 321 320
337 336 336 335 334 334 334 333 333 332 333 333 334 335 336 336 336 336 336 335 335 335 335 335 335 335 336 335 336 335 332 329 326 325 324 325 326 327 330 333 339 338 336 336 334 335 337 337 336 335 334 334 334 333 333 332 331 330 330 329 329 327 326 326 326 325 325 325 325 325 324 324 324 324 323 323 323 323 322 322 322 322 321 321 321
337 338 338 337 336 335 334 334 333 334 333 334 334 334 334 335 335 336 335 334 334 334 334 335 334 334 335 335 335 334 334 329 327 326 324 325 326 327 329 331 334 338 338 336 335 335 336 337 337 337 336 335 335 334 334 333 333 332 331 331 330 329 328 327 326 326 326 326 325 325 325 325 324 324 324 323 323 323 323 322 322 322 321 322 322
337 336 336 336 336 335 334 334 334 334 334 334 333 333 333 333 333 334 335 336 334 334 334 333 333 334 333 333 334 334 334 331 328 327 326 325 326 327 328 329 332 334 336 338 337 335 335 336 337 337 337 337 336 336 335 335 334 334 333 332 331 331 330 329 327 327 326 326 326 325 325 325 325 324 324 324 324 323 323 323 322 322 322 322 322
337 337 335 335 335 335 334 334 334 334 333 333 333 333 332 332 332 331 331 332 332 333 334 333 333 333 333 335 333 332 332 331 329 327 325 326 326 326 328 328 329 331 333 334 337 337 336 336 337 337 337 338 338 337 336 336 336 335 334 334 333 332 331 330 329 328 327 326 326 326 326 326 325 325 324 324 324 324 323 323 322 322 323 322 322
335 336 336 336 336 335 335 335 334 334 333 333 334 334 332 331 331 331 330 330 330 330 331 331 331 332 333 333 333 334 332 331 329 327 326 326 325 326 327 328 329 329 332 332 332 334 337 336 336 337 337 338 338 338 338 337 337 336 335 335 334 333 334 333 330 329 328 327 327 327 326 326 326 325 325 325 324 324 324 323 323 323 322 322 322
330 334 337 337 336 335 335 335 335 334 333 333 332 334 332 332 332 332 330 330 329 329 329 329 329 330 331 331 332 333 332 332 331 329 327 326 326 325 326 326 327 331 331 331 331 331 333 336 337 337 337 337 337 338 338 338 338 338 337 336 335 334 335 335 333 331 330 329 328 328 327 327 326 326 326 325 325 325 324 324 324 324 323 323 323
326 332 335 336 335 335 334 333 333 333 333 333 333 332 332 331 331 331 331 329 328 328 328 328 328 328 329 329 330 331 331 332 332 334 329 327 326 326 326 327 327 327 329 330 330 330 329 332 335 337 337 337 337 338 338 338 338 338 338 338 337 336 335 335 335 333 331 330 329 329 328 328 328 327 326 326 326 326 325 325 325 324 324 324 324
325 329 331 332 332 331 331 331 333 333 333 333 332 332 332 331 330 330 331 330 330 330 330 329 329 328 328 329 329 329 330 331 333 333 330 329 328 327 326 326 326 327 328 329 329 329 329 329 329 332 334 337 337 337 337 338 338 338 339 339 339 337 336 336 335 335 334 332 331 330 330 329 329 328 328 327 327 327 326 326 325 325 325 325 324
325 326 329 332 331 330 330 331 332 332 332 331 331 330 329 329 329 329 330 331 332 331 330 329 328 326 328 329 328 328 329 331 331 331 332 331 330 330 328 327 326 327 327 327 328 328 328 328 329 328 329 331 334 335 336 337 337 337 338 339 339 338 337 337 337 336 335 335 333 332 331 330 330 329 329 328 328 327 327 327 326 326 326 325 325
326 324 325 329 333 332 331 331 331 332 331 331 331 331 330 330 330 331 330 329 328 328 328 327 325 326 324 324 324 325 328 330 330 330 330 331 331 330 330 328 327 326 327 327 327 327 327 327 327 328 328 328 331 333 335 335 336 337 338 339 339 338 338 338 338 337 337 336 335 334 333 332 331 331 331 330 329 329 328 328 328 327 327 326 326
324 324 326 326 329 330 330 331 329 329 330 331 331 333 333 331 330 328 328 327 326 326 328 328 323 322 320 320 322 324 324 326 328 329 330 330 331 331 331 329 328 328 328 327 327 327 327 327 328 327 327 329 328 329 332 334 334 335 337 338 338 339 339 338 338 338 338 338 337 336 334 334 333 332 332 331 330 330 329 328 329 329 329 328 327
323 325 325 325 327 328 329 328 328 331 331 330 330 330 331 330 330 330 328 329 328 330 329 328 324 320 321 321 318 317 321 321 322 326 329 330 330 329 330 329 329 330 328 327 327 327 326 327 327 327 327 328 328 329 329 330 330 331 333 336 337 338 339 339 339 339 339 339 338 337 337 336 335 334 334 333 332 331 330 330 329 329 329 329 328
323 323 324 323 324 328 328 327 328 329 330 330 329 330 330 330 330 330 329 326 327 327 329 327 327 326 320 318 316 314 314 317 316 321 323 327 329 328 329 329 330 331 330 328 327 328 328 327 327 327 327 328 328 328 328 328 328 330 331 333 334 337 338 338 338 339 339 339 339 339 338 337 337 336 335 334 333 332 332 331 330 330 329 331 330
322 323 325 325 325 324 325 325 325 326 329 330 329 330 330 330 330 330 329 327 325 327 328 327 328 329 325 318 317 314 314 315 316 320 321 325 326 328 329 329 329 330 330 330 330 330 330 328 328 328 328 328 327 327 328 328 328 329 329 331 333 335 336 338 338 339 339 339 339 339 339 338 338 337 337 336 335 334 334 333 332 331 331 331 331
322 323 324 327 326 324 323 323 325 327 329 330 329 329 329 330 332 331 330 331 328 326 325 329 329 328 328 326 323 318 317 318 318 315 321 325 326 326 327 329 330 330 331 330 330 331 331 330 330 330 330 329 329 328 327 327 328 327 328 328 331 333 335 337 338 338 339 339 340 340 340 339 339 339 338 337 336 336 335 334 333 333 332 331 331
322 323 324 325 326 323 323 323 324 325 329 329 328 328 329 330 332 331 331 330 329 325 324 325 326 326 327 327 327 326 325 319 316 316 315 319 322 323 327 328 330 330 330 331 332 332 332 332 332 331 331 332 331 330 330 329 329 329 330 331 332 332 334 335 337 338 339 339 340 340 340 340 340 340 339 339 338 337 336 335 334 333 332 332 332
321 322 323 325 327 324 322 323 323 325 328 325 326 328 329 330 330 330 329 329 327 325 324 324 322 323 326 325 325 326 325 324 323 318 316 314 318 324 324 325 326 329 331 332 332 332 331 332 332 332 333 333 333 332 332 331 330 330 330 332 333 334 335 335 336 337 338 339 340 340 340 340 341 340 340 340 338 337 336 335 334 333 333 333 333
322 322 323 324 326 325 323 322 323 324 326 324 324 325 325 325 326 327 326 327 327 327 325 324 325 324 325 324 324 324 324 324 324 323 318 315 316 318 319 323 324 325 326 328 328 330 331 331 331 331 332 333 332 332 333 333 332 331 330 330 333 334 335 336 337 337 338 338 339 340 341 340 340 340 340 341 340 338 337 336 335 334 334 333 333
321 322 323 325 326 325 323 323 324 325 326 324 324 324 325 325 326 326 327 326 328 328 327 327 327 327 326 325 322 322 321 321 321 321 321 320 316 317 319 318 317 322 325 327 328 328 328 330 330 331 332 332 332 333 333 333 334 332 331 330 332 334 335 336 337 337 338 338 339 339 340 341 341 341 341 341 341 340 338 338 337 335 334 333 332
320 321 322 324 325 325 324 324 325 325 324 324 324 324 325 326 326 326 326 326 326 326 326 327 327 327 326 326 324 323 321 319 320 320 320 318 317 317 319 319 319 319 325 327 328 329 330 330 330 331 331 331 332 334 333 334 332 332 330 329 331 333 335 336 337 337 338 339 339 339 340 340 341 342 341 341 341 340 338 338 337 336 335 333 333
318 320 319 319 320 319 319 319 320 320 321 323 324 325 325 326 326 326 326 326 327 326 326 325 326 326 326 326 326 325 324 323 323 323 320 319 319 318 318 319 320 321 323 325 327 327 328 329 330 330 331 330 331 333 334 334 334 330 332 330 330 332 335 337 338 338 339 339 340 340 340 340 340 340 340 341 341 340 338 337 337 336 336 335 336
314 315 315 314 315 313 313 314 315 316 316 318 320 322 325 326 326 325 326 326 326 326 325 325 325 325 325 327 327 326 325 327 326 324 322 323 321 318 321 322 319 321 324 324 323 326 328 329 330 331 330 330 330 331 332 333 335 331 329 329 328 328 330 334 336 337 338 339 340 340 340 340 339 339 339 340 339 338 337 337 337 337 337 337 337
312 311 312 310 310 309 309 309 309 310 313 314 316 319 321 324 324 325 325 327 327 327 326 326 326 326 326 325 325 325 326 326 326 324 321 320 318 317 317 319 321 320 322 323 324 323 325 327 330 330 330 330 330 331 332 333 334 329 327 331 331 326 326 329 332 334 335 336 337 337 338 339 340 340 339 338 337 337 338 338 338 339 339 339 339
310 309 309 307 306 306 307 305 305 306 308 310 313 315 317 320 323 324 325 324 323 323 321 320 319 319 320 320 318 317 318 320 322 322 325 324 322 322 320 316 318 320 319 321 321 321 323 326 328 330 331 331 331 331 333 333 330 328 327 334 333 325 323 324 326 329 332 335 336 336 336 336 336 337 337 337 336 337 338 338 338 339 340 340 338
309 307 305 305 304 303 303 303 303 304 306 308 309 313 315 318 321 322 321 321 318 316 317 316 314 313 313 315 313 313 313 315 316 317 319 321 323 324 322 320 316 314 318 318 320 321 323 324 327 330 330 330 331 332 330 331 333 328 329 332 332 330 324 322 321 325 330 333 333 334 335 335 335 335 335 336 337 338 339 339 339 340 341 339 339
306 305 303 302 303 303 302 302 302 303 304 306 308 311 315 318 320 320 318 316 315 312 312 311 312 311 310 309 310 310 310 311 312 314 314 316 318 320 321 320 319 316 312 314 318 320 322 325 323 327 329 329 330 332 332 332 329 329 331 331 331 332 325 319 317 321 328 327 327 328 331 333 334 335 335 336 337 337 337 338 339 339 340 339 339
303 303 302 301 301 302 301 301 302 303 303 305 307 311 316 318 318 317 314 312 310 309 309 307 306 307 306 305 305 305 307 308 308 310 311 313 314 315 316 317 318 316 316 313 316 321 322 325 325 323 328 323 322 325 327 329 320 325 329 330 331 330 320 320 318 320 321 318 317 319 324 328 331 333 333 334 335 335 335 335 336 336 336 335 336
301 300 300 300 300 300 300 300 301 302 303 304 308 311 315 316 315 311 310 309 306 304 305 304 304 303 301 301 301 301 303 304 305 306 307 310 311 312 313 315 314 314 314 316 314 320 322 320 324 325 325 320 318 319 320 323 321 319 322 323 327 323 321 323 319 317 315 313 314 316 318 322 324 327 328 329 330 331 330 331 331 330 327 324 323
299 299 299 299 299 299 300 300 300 301 303 305 307 311 314 311 309 307 306 305 304 303 301 301 301 300 300 299 300 300 301 302 302 303 304 306 308 309 310 311 312 313 314 316 315 315 321 321 322 321 319 322 315 313 315 317 320 317 319 319 321 320 322 322 319 316 314 312 311 312 312 313 316 321 323 326 328 328 327 327 325 319 315 317 319
299 298 298 299 299 299 299 301 300 301 302 305 307 312 312 309 308 306 305 304 302 302 301 300 300 299 299 298 298 299 300 301 301 302 303 304 305 306 308 310 310 311 312 314 314 314 318 321 319 315 314 315 313 310 310 312 315 315 315 317 319 320 319 320 321 316 313 312 311 311 310 310 311 313 317 322 321 317 318 316 310 311 315 317 316
298 297 297 298 298 298 299 299 300 301 303 305 306 310 309 306 305 305 304 302 301 300 300 298 298 298 298 298 297 299 300 300 300 300 301 302 303 304 305 306 307 309 312 312 314 315 313 312 312 312 310 310 308 309 307 309 311 312 312 313 316 317 317 318 319 320 313 312 311 310 309 309 310 310 311 314 311 308 308 308 308 308 309 311 310
299 298 296 296 297 298 299 299 300 301 303 305 308 309 307 305 304 303 302 301 300 299 298 298 298 298 297 297 297 298 299 299 299 300 301 301 302 301 302 304 304 305 308 310 312 312 311 308 307 306 306 307 306 304 305 307 309 308 308 310 312 314 315 316 318 319 313 311 310 310 309 309 310 309 309 310 309 309 309 309 309 308 307 307 307
296 298 297 295 296 297 298 299 300 301 303 305 308 307 305 304 304 302 301 300 299 299 299 298 298 298 297 297 297 298 298 298 298 299 299 300 300 300 300 301 302 303 304 306 307 308 306 304 303 302 303 303 303 303 303 305 306 305 306 308 311 311 312 314 316 318 313 311 310 310 310 310 310 310 310 309 309 310 310 310 309 309 308 308 307
295 295 296 297 295 296 296 297 299 300 302 304 305 306 305 304 301 300 299 298 299 298 298 299 300 298 298 297 297 298 298 298 298 298 298 298 298 299 299 300 301 302 303 303 303 303 302 300 300 301 301 301 301 301 301 300 303 303 303 304 307 307 309 311 314 315 311 311 311 311 311 312 311 310 309 308 308 308 309 309 308 308 308 307 307
294 294 294 295 296 295 296 297 298 299 300 301 302 301 300 300 299 298 297 297 297 297 297 298 298 299 298 298 298 298 297 297 297 298 298 297 298 298 298 299 299 301 300 301 301 301 300 298 298 297 298 296 298 298 298 299 300 299 300 301 304 305 305 307 310 312 311 312 311 312 313 311 310 309 309 308 307 307 308 308 307 307 307 307 306
293 293 293 293 295 294 296 297 298 299 300 300 300 300 299 298 297 296 296 296 296 296 296 296 296 298 299 299 299 298 298 298 297 298 298 298 297 297 298 298 299 299 299 298 299 298 297 297 296 296 295 296 296 295 297 298 299 298 297 298 299 302 303 304 306 309 308 307 307 308 311 309 309 310 307 307 306 307 307 308 307 307 308 307 306
293 292 292 292 294 295 296 296 298 300 299 300 300 299 298 298 297 296 296 296 295 295 295 295 296 296 298 300 300 300 299 299 299 299 299 298 298 297 297 298 298 298 297 297 297 296 296 295 294 294 294 294 294 296 297 296 296 297 297 297 297 297 299 302 306 305 303 303 302 304 309 306 306 307 307 308 308 308 309 309 307 307 307 306 305
296 293 292 292 293 294 295 295 296 298 299 300 300 298 297 296 296 296 296 295 296 295 295 295 295 295 296 299 301 300 301 301 300 300 300 301 298 296 297 298 298 297 296 296 295 295 294 294 293 294 293 292 292 293 292 292 292 293 295 297 296 297 298 300 303 305 300 299 300 302 305 302 303 304 306 307 307 308 310 308 306 306 305 304 303
295 293 291 292 292 293 294 295 296 297 297 300 302 300 299 297 296 295 296 295 295 295 295 295 295 295 295 295 300 302 300 300 299 298 297 298 299 298 297 297 297 296 295 295 294 294 293 292 292 292 291 290 290 292 292 292 294 295 295 295 293 295 297 298 301 301 300 298 297 298 302 301 301 302 303 303 304 306 309 308 304 303 303 302 302
293 293 291 290 291 292 293 294 294 295 296 299 297 295 295 296 296 295 295 295 295 294 294 294 294 295 294 295 295 300 299 297 296 296 296 296 296 296 296 296 298 297 295 294 293 293 292 291 291 291 290 289 290 291 292 292 292 293 293 294 293 294 294 294 293 298 301 296 295 296 300 300 300 298 300 301 302 303 305 304 301 301 301 302 301
294 290 289 289 290 291 292 293 293 295 296 297 294 294 294 295 296 296 295 295 295 294 294 293 294 294 294 294 294 295 299 297 295 293 295 295 295 295 295 295 293 293 293 295 294 292 291 290 289 289 290 288 288 290 290 290 290 292 293 293 292 292 293 293 294 293 297 297 293 294 296 299 298 298 298 299 300 302 303 302 300 300 300 300 300
292 290 289 289 289 290 292 292 293 294 294 295 294 294 294 293 294 296 295 295 295 294 294 293 293 293 294 294 294 293 294 298 296 293 292 293 294 294 294 294 295 293 290 290 292 293 292 290 289 288 288 288 288 288 290 290 291 290 291 291 291 291 293 294 294 293 296 295 293 292 293 296 296 295 296 298 299 301 304 302 300 299 299 299 299
292 290 289 289 289 290 291 291 291 292 293 294 293 294 294 293 293 295 295 295 295 294 294 294 294 293 293 293 293 293 293 294 295 293 292 291 291 291 291 291 292 293 292 292 291 291 291 290 289 287 289 290 287 288 291 290 289 289 289 290 290 290 291 292 295 294 297 294 290 291 292 293 295 294 294 296 298 299 304 300 298 298 299 299 299
292 291 290 289 290 290 289 290 291 290 292 292 292 292 293 293 293 295 296 296 295 294 294 294 295 293 292 293 293 292 292 293 295 294 291 290 290 290 290 290 290 291 291 291 291 291 290 290 289 289 289 290 289 290 290 290 289 289 291 290 290 290 292 294 295 295 296 294 291 291 288 292 294 292 293 294 296 298 303 299 298 298 298 299 298
295 293 292 290 288 288 288 288 289 289 291 291 291 292 292 292 294 295 294 293 293 293 293 293 294 295 293 292 292 292 292 293 293 292 292 291 289 288 288 289 289 290 290 292 291 291 291 290 289 289 289 289 289 289 290 289 289 290 290 290 290 290 291 290 289 291 293 293 291 289 288 290 292 290 291 294 296 297 300 299 298 298 298 298 298
294 292 292 291 290 289 289 288 288 288 289 291 291 291 291 291 292 293 293 293 292 291 291 291 292 295 296 293 292 292 292 292 291 289 290 289 288 287 287 287 288 288 288 290 290 290 290 290 289 288 289 288 289 289 289 289 288 289 288 287 285 287 288 287 288 289 290 291 289 289 288 288 290 290 290 292 294 296 298 296 298 298 298 298 297
293 293 293 291 292 292 290 289 289 288 289 291 291 291 291 291 293 291 291 291 290 291 290 290 291 293 298 297 295 291 291 291 290 289 289 290 287 287 287 287 287 287 287 289 289 289 290 288 288 287 287 288 288 288 288 288 288 288 286 283 285 287 287 287 286 288 290 290 288 289 288 287 289 290 288 290 294 296 296 295 296 298 298 297 296
295 294 294 291 291 291 292 292 293 287 288 291 291 290 290 291 292 290 290 290 290 289 290 290 290 291 293 295 295 293 292 291 289 289 288 288 287 287 287 286 286 286 286 288 288 287 287 287 286 287 286 286 287 287 288 287 287 288 287 286 286 286 285 286 287 287 287 287 288 289 285 286 286 288 287 287 288 292 295 294 296 297 297 297 296
Wind_Speed
1 1 1 1 2 2 1 2 2 2 0 1 2 2 3 2 3 3 3 4 4 5 4 4 3 3 2 2 3 4 4 4 4 5 4 5 5 6 10 11 11 12 12 12 12 11 10 9 9 10 10 10 10 10 10 9 9 8 8 8 9 8 9 9 8 8 8 8 7 8 8 8 9 8 8 8 7 7 7 8 8 8 8 7 7
2 1 1 1 1 2 2 3 2 2 2 2 2 2 3 3 3 3 4 4 4 4 4 5 6 4 3 3 3 4 4 5 5 5 5 4 5 5 10 11 12 12 12 12 12 12 11 10 11 11 10 10 11 11 11 10 11 10 10 10 9 10 9 8 9 8 8 8 8 9 9 9 9 9 9 9 9 8 9 9 9 9 9 8 8
1 0 1 2 2 2 2 2 2 3 2 3 3 3 3 4 4 4 4 4 4 3 3 4 5 4 4 4 4 3 4 4 4 4 5 5 4 5 6 11 12 12 12 12 13 12 12 12 12 12 12 12 12 12 12 11 11 11 10 11 11 10 10 10 10 10 10 10 10 10 10 10 10 10 10 10 10 10 9 9 9 10 10 9 10
1 1 2 2 3 3 3 3 3 2 2 3 3 3 3 4 4 4 4 4 4 3 3 4 5 5 4 5 4 4 4 4 4 5 4 4 5 5 5 6 10 13 13 12 13 13 13 13 13 13 13 13 13 13 13 12 11 11 12 11 12 12 11 11 11 11 11 11 10 10 10 11 11 12 11 11 11 10 11 10 10 11 10 10 10
2 3 3 2 3 4 4 3 3 3 2 3 3 3 3 3 4 3 3 3 4 4 3 4 5 5 4 5 3 4 3 3 4 4 5 5 5 5 5 5 5 9 14 14 14 14 14 14 14 14 14 14 14 14 14 14 13 13 13 12 12 13 13 13 12 11 11 11 11 11 12 12 12 12 12 12 12 11 11 11 11 11 11 11 11
3 3 2 2 3 3 4 4 3 3 3 2 3 3 3 3 3 2 3 4 4 4 3 4 4 4 5 4 4 4 3 4 4 5 4 5 5 5 5 5 5 5 6 13 15 14 15 15 15 15 15 15 15 15 15 15 15 15 14 14 14 13 14 14 13 13 12 12 12 12 13 12 12 13 13 13 13 12 12 12 11 12 12 12 12
3 3 2 2 2 2 3 4 3 3 3 2 2 3 3 4 3 3 3 3 4 4 4 4 4 5 5 4 4 3 3 4 4 4 5 5 5 5 5 5 5 5 5 5 9 16 16 15 16 15 15 15 16 16 16 16 16 16 16 15 13 13 13 15 14 13 13 13 13 13 13 13 13 14 14 14 14 13 13 13 12 12 12 12 12
3 3 3 3 3 4 4 4 3 2 2 2 2 3 3 3 3 3 3 4 4 4 3 4 4 5 5 4 4 3 4 4 5 5 4 4 5 5 5 5 5 5 6 5 6 7 15 16 16 16 16 16 16 16 16 16 17 17 17 16 15 14 12 14 16 15 14 14 13 13 14 14 14 14 14 14 14 14 14 14 13 13 13 13 13
4 3 3 3 3 3 4 3 3 3 3 3 3 2 3 3 3 3 4 5 4 5 4 3 4 4 4 4 4 3 4 5 5 5 4 5 5 5 5 6 6 7 6 6 6 6 9 15 16 17 16 16 15 16 17 17 17 17 17 17 17 16 14 11 14 16 15 15 15 15 15 14 15 14 14 15 15 15 15 14 14 13 14 14 14
5 4 4 3 4 4 4 3 3 3 3 3 3 2 2 1 3 4 3 4 4 4 5 4 3 4 4 4 4 3 4 5 5 4 5 5 5 6 6 5 5 6 5 6 6 5 5 9 15 16 16 15 16 16 17 17 18 17 18 19 18 18 16 15 12 15 17 16 16 16 16 15 16 16 15 15 15 15 15 15 14 14 14 14 14
5 5 4 3 4 4 4 4 3 3 3 2 3 3 3 2 3 4 3 4 4 5 5 4 5 4 4 5 4 5 5 5 4 4 5 6 6 6 4 6 5 5 6 6 6 6 6 5 5 6 8 14 15 14 14 16 17 18 19 20 20 18 18 17 14 13 15 17 17 17 16 17 17 17 16 16 15 15 15 16 16 16 15 15 14
6 5 4 4 4 4 4 3 2 2 2 3 3 3 4 4 3 3 5 4 3 4 4 3 3 4 6 5 4 5 6 5 5 5 5 5 6 4 6 5 5 6 6 6 6 6 6 6 6 6 5 6 6 9 15 17 19 20 21 21 20 18 19 21 17 15 15 15 17 17 17 17 18 18 17 17 17 16 15 16 16 16 16 16 15
5 6 5 4 3 3 3 3 2 3 3 4 3 3 4 3 2 2 4 5 3 1 1 1 2 4 2 4 5 4 6 6 7 6 6 6 5 5 5 5 6 6 7 5 6 6 6 6 5 5 5 2 7 14 15 17 17 20 22 21 21 19 20 20 19 16 16 15 16 18 18 19 18 18 19 18 17 17 17 15 16 16 17 16 16
5 5 5 4 3 3 3 4 3 3 4 4 4 4 4 3 3 2 2 3 3 1 2 3 3 2 4 5 5 5 5 4 6 6 6 5 6 6 5 6 7 7 4 5 6 6 6 5 4 5 5 6 7 8 8 10 13 18 21 22 22 21 22 22 20 18 16 16 16 17 19 19 19 19 20 19 18 18 18 18 17 16 16 17 16
5 5 5 5 4 4 5 4 4 3 3 4 4 5 4 4 4 3 3 2 4 5 5 3 3 1 1 3 5 5 4 3 3 5 5 6 5 5 5 6 7 5 4 4 5 5 5 4 5 6 6 7 7 8 7 8 11 14 17 20 21 22 22 21 20 20 19 18 17 17 17 18 19 20 20 20 19 19 18 18 17 17 17 15 15
6 6 5 5 5 5 4 4 4 4 4 4 4 5 5 4 3 3 3 4 3 2 0 2 3 1 3 1 2 2 7 3 4 5 2 4 4 5 4 6 7 6 5 7 7 5 5 4 6 6 6 7 7 7 7 8 11 15 17 19 20 21 21 22 22 21 21 20 20 18 18 17 19 20 21 20 19 19 19 19 19 17 18 17 13
6 6 6 6 6 5 5 5 4 2 2 3 4 4 5 3 3 2 3 4 5 3 1 2 1 1 2 1 2 1 4 4 5 6 3 2 3 5 5 6 6 6 6 8 6 6 5 6 6 6 7 7 7 7 7 8 8 8 11 17 20 20 20 21 22 22 22 22 22 21 21 20 20 20 20 20 19 20 20 19 19 18 18 18 16
5 6 6 6 7 7 5 4 4 3 2 3 3 4 4 4 3 4 5 6 5 5 4 1 1 1 3 3 2 4 4 3 5 5 5 3 5 4 5 6 5 6 6 6 6 6 5 5 5 6 7 7 6 7 7 7 8 7 7 10 17 18 18 20 21 22 23 23 23 22 21 20 21 22 21 21 22 21 20 20 19 18 17 17 17
6 5 5 5 5 5 5 5 5 5 4 4 3 3 4 3 4 4 4 2 3 5 5 4 1 4 4 5 6 5 5 4 4 3 8 4 4 2 4 4 4 5 6 6 6 5 5 5 6 7 6 6 6 6 6 7 9 11 13 15 16 16 17 19 20 20 20 22 23 23 22 22 22 21 21 21 20 20 20 20 19 18 17 17 18
6 6 6 6 6 7 6 5 5 5 5 4 4 4 4 4 5 5 4 3 3 4 5 4 4 3 4 5 6 6 6 6 6 6 6 8 8 5 4 4 6 6 5 5 5 5 4 4 5 5 5 6 6 6 7 7 7 8 8 14 17 17 17 18 19 19 20 21 21 23 23 24 23 22 23 23 22 19 19 19 20 19 19 19 18
6 6 6 7 6 6 5 5 6 6 4 4 4 4 4 4 4 3 3 3 3 4 4 5 5 5 3 3 4 5 4 5 6 5 5 5 8 6 8 4 4 6 5 4 4 3 4 4 4 5 5 5 5 6 6 6 6 7 8 12 15 16 16 18 19 19 19 20 20 22 23 23 24 23 22 23 23 21 19 19 20 20 19 19 19
6 6 6 7 7 6 6 6 6 5 5 4 4 4 4 3 3 3 3 4 2 3 4 4 4 4 4 5 4 2 4 4 5 5 6 8 9 7 6 8 9 4 4 5 5 5 4 4 4 4 5 5 5 5 6 6 6 6 8 13 14 15 16 16 17 17 18 18 19 21 22 23 24 23 22 22 22 20 20 20 20 20 19 19 19
5 5 6 6 6 6 6 6 5 6 5 6 4 3 2 3 3 3 3 3 3 4 4 4 4 4 6 5 6 6 5 4 5 5 6 5 5 6 6 6 7 8 6 5 5 6 5 4 4 5 5 5 3 4 5 6 7 8 12 12 12 13 14 15 16 16 17 18 19 20 21 22 24 23 23 22 21 20 19 19 19 19 19 19 19
6 6 7 7 6 6 6 5 6 6 5 4 4 4 3 2 2 1 1 2 3 4 4 5 5 4 5 5 5 4 5 5 6 6 6 6 6 6 5 4 4 4 4 7 8 6 5 5 5 5 4 4 4 4 4 5 6 11 9 10 11 12 13 15 16 16 16 18 18 19 20 21 21 21 21 22 21 19 17 17 18 19 19 19 20
6 6 7 8 6 6 7 6 5 5 5 5 5 5 4 4 4 4 3 4 3 4 4 4 3 4 3 2 3 4 5 4 6 6 4 5 5 7 5 5 6 6 5 4 7 5 7 6 5 4 4 4 4 3 3 3 4 6 8 7 9 9 10 11 13 14 15 16 18 19 20 20 20 20 19 18 17 16 15 16 17 18 18 19 19
4 5 5 5 5 5 4 4 5 5 5 5 5 5 5 4 4 6 6 6 6 7 6 6 5 5 4 3 5 5 5 5 5 3 5 5 4 5 6 4 4 7 4 3 3 3 2 1 3 2 4 4 3 4 4 4 3 6 8 5 6 8 10 10 11 12 13 13 14 15 17 18 19 19 18 17 16 15 15 16 17 18 18 19 19
4 4 5 5 5 5 5 5 6 6 6 5 5 4 5 4 6 7 7 7 9 9 8 9 7 8 8 8 6 6 7 7 7 6 4 3 3 3 2 6 5 4 4 2 2 4 6 3 3 4 4 3 3 5 4 4 6 9 9 5 4 7 8 9 10 10 11 13 13 13 13 14 14 14 15 15 15 16 16 16 16 18 20 21 21
5 5 6 6 5 6 5 6 5 5 6 5 5 5 5 5 7 7 8 7 9 9 7 8 9 9 8 6 7 6 6 6 6 6 5 5 4 3 2 3 5 5 2 4 2 3 2 1 1 4 6 7 8 7 7 7 7 10 9 7 6 6 6 8 9 10 14 15 15 13 13 13 13 13 14 15 15 15 17 18 18 18 21 22 22
5 5 6 6 5 6 5 6 6 6 5 5 5 4 4 7 7 7 8 7 8 8 7 8 7 6 6 8 6 5 7 6 5 5 6 6 6 5 5 3 2 4 4 2 3 3 1 2 4 4 8 10 8 7 8 8 11 11 7 6 7 8 8 9 10 10 12 12 13 13 13 14 14 14 14 14 15 15 16 16 17 18 20 22 22
5 5 5 6 5 6 5 6 5 5 5 5 5 5 4 6 7 8 7 7 8 7 7 7 7 6 7 8 8 7 7 6 6 6 6 6 7 7 5 5 4 2 3 3 3 2 3 3 6 4 7 10 8 8 8 8 15 12 9 7 6 8 10 11 12 12 11 12 12 11 11 13 13 14 13 14 14 14 15 16 16 17 18 17 16
6 5 5 5 5 6 5 6 5 6 5 6 5 5 6 7 8 8 7 7 8 8 8 8 7 8 8 8 7 6 7 6 6 6 6 6 6 5 6 6 6 5 3 2 4 1 2 5 5 10 7 8 8 7 8 8 11 12 10 10 10 12 13 11 15 15 15 15 15 15 13 14 14 13 12 12 13 14 15 15 16 17 17 16 14
5 5 5 6 6 6 6 5 6 5 6 7 6 6 7 9 7 8 7 7 9 9 8 8 7 7 8 8 8 7 7 6 7 7 7 7 7 6 7 7 7 7 5 3 3 2 6 7 7 9 12 7 10 11 9 8 9 12 9 9 10 11 9 9 12 16 17 16 15 17 16 15 13 12 12 13 13 14 14 14 15 14 13 15 15
5 6 6 6 6 5 6 6 6 6 7 7 7 6 8 8 8 8 8 8 9 8 8 9 9 8 8 7 8 8 7 7 7 6 7 7 7 6 7 7 8 9 7 4 4 2 5 8 8 8 9 10 8 12 10 9 10 10 9 8 9 9 9 8 8 13 17 17 16 18 18 18 17 15 12 12 12 12 12 12 11 10 13 14 14
5 6 6 5 5 6 5 6 7 7 7 7 7 6 8 8 9 7 8 9 10 9 8 9 8 7 6 7 8 8 7 7 7 8 7 7 8 7 8 7 7 7 7 6 5 5 6 8 8 8 8 10 7 10 10 10 11 10 10 9 7 9 9 8 8 8 18 17 18 18 17 18 19 19 17 14 13 12 12 12 11 11 11 11 11
5 6 6 6 6 6 6 6 6 7 7 7 6 7 8 9 9 9 9 10 10 9 10 9 8 6 8 8 8 7 6 7 8 7 7 8 8 8 8 7 8 8 8 8 6 6 7 6 7 8 8 8 8 10 11 8 8 8 9 9 8 8 7 8 7 7 16 17 18 16 17 16 17 17 18 18 17 16 15 15 15 15 14 12 10
6 5 6 6 6 6 7 7 7 7 7 7 7 9 10 9 9 10 10 10 9 8 8 8 8 8 8 8 8 8 7 8 8 8 7 7 8 7 8 8 8 9 9 8 9 6 5 5 8 8 8 8 7 10 9 7 8 9 8 7 7 8 8 7 7 8 13 17 17 17 17 17 17 17 17 20 20 20 19 19 18 18 17 16 13
6 6 6 6 6 7 6 7 6 7 6 7 8 8 8 8 10 9 9 8 8 8 8 8 8 7 8 8 7 8 7 8 8 8 8 10 8 7 8 7 7 7 7 8 8 8 7 7 6 6 6 5 5 6 10 10 9 8 8 10 9 9 9 7 6 9 14 17 16 17 16 17 19 19 16 19 19 20 18 20 21 21 21 21 19
7 7 7 6 6 7 6 6 6 6 7 7 8 8 8 8 8 8 7 7 7 7 7 7 7 6 7 7 7 8 8 8 8 7 8 9 8 8 9 8 7 7 8 8 8 8 8 7 7 7 9 9 8 7 10 10 8 10 11 9 7 10 10 10 10 9 9 10 10 10 10 14 16 17 15 16 18 18 17 19 21 22 22 22 23
7 7 6 7 5 6 6 6 7 7 7 7 8 8 7 7 8 8 7 7 7 7 7 7 6 6 6 6 7 7 8 8 8 8 7 8 7 9 8 7 7 7 8 8 8 8 8 7 6 7 6 7 7 9 10 9 5 7 10 10 10 10 8 9 9 9 10 10 11 12 10 13 14 13 14 14 16 17 17 18 21 21 21 21 21
7 6 6 6 5 5 6 6 6 5 7 7 7 7 7 7 7 7 7 7 7 7 7 7 7 6 6 6 7 7 9 9 8 7 7 7 6 8 7 7 7 8 8 8 8 8 8 8 7 7 7 6 7 6 6 8 6 5 10 9 9 11 11 9 8 11 11 10 10 10 9 13 12 14 15 13 15 17 16 17 21 21 22 20 20
5 5 5 5 5 7 7 7 7 6 7 6 5 6 7 7 6 7 6 6 6 6 6 7 7 7 7 5 7 9 13 16 18 15 14 12 7 8 8 7 8 7 7 7 7 7 7 6 7 6 6 8 8 10 11 12 12 10 10 9 7 8 8 7 7 9 12 11 9 8 8 11 10 10 9 9 11 15 13 17 17 21 22 20 20
5 4 5 5 6 6 7 7 7 7 6 5 7 10 8 7 7 6 6 6 6 6 6 6 6 7 7 6 8 17 16 16 15 13 14 15 17 13 9 8 7 7 7 7 7 6 6 7 8 7 8 9 9 10 9 8 8 8 9 10 10 9 7 6 2 8 12 12 10 9 8 10 10 9 9 9 10 11 9 11 12 15 18 20 21
6 5 5 7 7 6 7 7 8 7 6 5 8 10 11 11 7 7 6 6 6 6 6 6 6 6 6 7 6 10 11 11 10 13 14 15 14 15 17 18 15 9 6 8 8 7 6 7 6 7 7 8 9 9 8 8 8 9 8 8 8 8 10 11 10 7 10 13 10 8 7 10 10 11 10 10 11 10 10 12 21 21 20 20 21
5 4 7 6 6 5 5 7 7 5 6 7 8 10 11 10 9 7 6 5 5 6 5 6 5 5 6 6 6 5 7 9 7 7 10 13 14 14 14 15 16 17 15 10 7 7 7 6 7 8 7 8 8 9 10 10 10 8 8 7 8 8 8 9 8 10 10 13 10 8 7 9 9 9 8 10 11 10 8 15 21 21 20 21 21
4 6 6 6 6 5 5 7 6 5 5 7 8 9 10 10 10 7 6 5 5 6 6 6 6 6 5 6 5 6 6 12 8 7 7 8 11 14 14 13 16 17 15 16 15 10 6 7 7 8 9 7 8 9 10 10 9 8 8 8 9 7 6 5 7 7 9 12 9 8 7 9 10 10 9 10 10 9 8 14 20 20 20 21 21
5 6 6 6 5 6 5 5 6 5 5 6 8 8 9 9 9 8 6 6 5 5 6 6 5 5 6 5 5 6 6 7 6 7 7 7 7 7 8 8 9 12 13 15 14 14 11 7 7 8 8 8 8 8 10 10 10 9 8 8 9 8 7 7 7 6 6 11 11 8 5 9 11 10 10 10 10 9 7 15 19 19 20 20 21
5 5 5 6 5 5 5 5 5 6 4 7 7 8 8 8 8 6 6 5 5 5 5 5 5 5 5 5 5 5 5 6 6 7 7 6 6 6 7 8 8 8 9 10 9 8 8 7 7 7 7 8 8 9 9 9 9 7 6 6 7 7 6 5 2 4 4 10 13 9 7 8 10 10 9 10 11 9 8 13 19 19 20 20 20
4 5 5 5 5 6 5 5 6 6 5 7 7 7 7 7 7 5 6 6 6 5 6 5 5 5 5 5 5 6 6 6 9 10 8 5 6 7 7 7 7 7 8 10 11 10 9 7 7 8 8 9 10 10 11 10 8 7 5 1 2 5 5 5 7 7 6 9 13 11 7 7 9 9 10 9 9 7 8 10 16 18 19 19 19
5 4 5 5 4 5 5 4 6 5 5 6 6 6 6 6 5 5 5 5 5 6 5 5 5 4 5 5 5 5 6 6 8 9 8 7 6 6 6 6 5 6 7 6 9 9 9 9 9 10 9 10 10 12 14 16 14 10 4 6 12 10 9 9 8 8 7 8 11 12 7 7 9 10 11 9 9 7 7 11 12 15 17 18 18
5 4 4 5 4 4 5 5 4 6 5 5 6 5 6 6 4 6 5 6 6 5 5 5 4 5 7 12 8 6 6 6 8 10 8 6 7 5 5 6 6 7 6 5 4 5 6 7 7 7 10 10 11 12 15 17 18 15 11 10 7 6 6 6 6 8 5 6 11 13 7 6 9 9 10 8 5 3 6 10 12 12 15 15 18
6 5 4 5 4 4 4 5 7 6 4 5 6 5 5 5 4 4 5 6 6 5 5 6 5 5 6 7 10 8 8 8 10 10 9 7 6 5 4 6 6 7 6 5 5 6 6 5 6 7 8 11 10 10 11 16 17 15 10 8 7 7 7 6 7 7 5 6 12 15 9 8 10 9 10 10 6 4 4 10 10 11 12 12 13
Wind_Direction
222 234 200 258 271 266 259 271 284 286 276 262 200 220 244 235 250 263 286 297 302 304 319 307 310 314 277 194 188 193 199 200 205 207 209 208 217 228 228 225 217 221 225 226 228 234 238 238 235 237 225 213 215 225 227 230 236 223 227 237 236 235 235 234 236 238 238 240 243 246 250 252 250 249 252 253 258 257 254 259 264 266 266 264 264
225 200 165 267 263 268 253 250 245 250 214 238 227 218 237 248 248 250 252 260 275 283 301 300 299 293 269 261 222 210 202 193 195 203 204 204 218 229 230 226 219 222 227 230 232 232 233 234 238 244 241 228 227 232 230 229 232 232 220 229 236 237 235 239 238 240 242 239 244 248 255 255 252 254 254 254 256 256 261 260 261 265 267 268 271
164 181 298 309 316 323 306 305 287 261 226 238 216 218 220 223 230 239 236 235 242 252 258 275 282 274 267 263 252 216 217 206 202 198 200 203 205 218 230 230 222 222 226 232 237 236 233 234 234 238 242 241 237 239 239 235 234 231 225 218 213 225 233 236 241 243 244 245 247 251 252 256 258 258 254 254 258 258 260 262 261 266 267 267 275
241 273 296 306 309 310 311 311 293 282 251 259 251 228 218 233 231 234 243 240 256 245 226 241 262 264 267 256 255 222 218 201 204 204 204 198 203 211 219 226 228 223 224 230 236 239 237 236 235 236 238 243 243 244 246 242 240 239 231 225 219 216 222 234 242 245 245 247 248 249 252 255 259 259 258 257 258 259 261 262 262 265 267 270 272
266 256 280 292 308 308 303 289 286 286 288 268 279 269 254 251 255 247 250 250 264 259 239 228 252 265 256 256 238 248 213 196 210 199 204 202 202 207 212 220 224 232 227 226 229 235 240 240 240 238 237 238 243 245 246 250 243 244 240 234 230 216 217 221 230 236 243 245 247 250 253 255 256 257 258 262 263 259 258 262 265 265 266 268 270
250 236 239 256 272 289 300 304 298 273 267 276 278 288 278 270 264 247 256 253 257 263 252 251 251 257 250 254 236 246 236 217 209 209 193 205 202 204 209 212 217 223 232 228 227 229 235 239 242 242 241 241 241 243 244 245 248 251 250 240 234 231 222 220 219 224 233 240 246 250 253 254 256 259 260 261 263 264 262 261 263 266 267 267 269
263 252 218 214 241 260 273 271 272 256 259 250 231 255 255 265 262 250 246 239 244 257 240 241 254 258 257 244 245 227 214 229 207 208 204 200 191 208 206 210 211 215 222 225 230 230 232 235 239 242 243 244 244 243 244 245 246 250 254 256 247 238 229 220 221 220 224 231 237 245 249 252 255 258 260 260 262 261 262 264 263 264 264 266 268
277 230 234 222 225 236 244 258 261 253 241 258 254 265 246 253 255 230 264 257 230 241 215 239 236 255 265 258 252 224 218 212 218 211 207 194 209 204 205 212 210 211 215 219 224 231 234 234 236 239 243 245 246 247 248 248 248 249 251 251 251 249 239 221 220 221 222 224 228 237 242 245 253 258 259 260 260 261 263 263 262 264 265 265 263
322 242 229 229 228 242 249 241 246 254 271 253 254 244 255 276 274 229 212 256 265 269 266 237 252 248 260 263 256 245 233 216 221 214 174 196 206 214 212 217 214 217 213 217 219 226 235 237 236 238 241 245 247 248 249 250 250 250 253 251 249 249 247 239 216 219 221 223 223 230 236 242 246 252 258 260 261 262 263 264 264 264 266 267 268
341 299 217 218 224 236 243 219 216 220 240 258 266 253 229 235 291 278 237 235 259 266 277 276 256 264 264 265 271 246 253 240 217 207 195 211 207 210 215 214 217 218 219 218 221 222 227 237 240 241 242 243 245 248 249 251 253 251 250 254 253 253 249 244 232 217 220 223 226 228 232 237 241 245 250 255 258 261 262 264 263 263 263 264 264
336 332 284 244 228 230 246 230 209 210 217 247 256 251 272 278 273 284 277 244 245 251 254 265 276 274 274 268 265 255 252 248 216 194 204 216 218 221 196 214 211 215 221 221 221 223 226 226 234 239 241 243 244 250 263 268 267 265 261 257 252 251 259 254 243 234 220 222 227 227 230 233 237 243 246 249 254 257 260 262 264 264 263 264 262
334 334 317 277 247 253 256 249 233 218 263 274 250 227 248 273 268 266 296 294 247 245 253 263 273 273 270 275 268 270 262 234 225 213 207 209 219 209 212 206 206 215 217 221 216 221 224 224 226 231 240 255 279 256 248 249 250 252 253 257 260 259 253 255 249 240 237 227 222 225 230 233 236 240 243 244 247 253 258 259 262 263 264 265 264
331 331 325 306 276 260 266 282 213 229 240 254 247 223 223 222 246 290 292 299 302 249 341 198 320 299 291 277 291 244 246 234 223 216 210 208 204 209 212 200 212 214 217 208 218 218 217 221 223 224 230 197 228 236 236 243 250 252 252 251 251 246 251 255 256 246 237 236 225 224 229 232 235 237 241 243 244 246 250 257 257 261 262 262 262
323 323 316 307 290 269 256 257 228 218 225 239 256 255 241 213 211 249 212 249 274 196 280 358 350 235 315 325 307 291 253 235 234 228 218 213 206 210 209 211 221 221 216 212 225 222 222 220 218 222 215 209 230 245 247 246 249 251 253 253 251 251 249 247 249 252 244 239 235 227 227 231 234 235 239 241 242 243 247 252 255 256 258 259 260
330 326 314 312 285 259 248 237 230 224 245 259 261 272 261 245 217 232 282 230 267 292 275 191 243 200 103 337 310 337 339 338 297 263 233 226 208 211 209 221 233 221 202 215 226 231 229 218 219 221 216 214 221 235 239 242 244 248 253 254 253 251 251 252 250 249 249 244 240 238 234 231 232 235 239 240 241 243 243 249 254 255 261 260 247
334 338 331 324 316 279 270 249 235 211 208 243 264 267 263 253 237 235 230 295 312 316 3 210 196 101 315 222 288 22 313 321 323 298 299 263 227 222 212 223 226 212 192 215 223 218 222 212 222 218 220 220 219 226 234 239 246 250 253 255 254 251 250 250 250 250 249 249 247 242 240 233 232 236 241 241 241 242 243 244 248 252 253 259 242
342 346 350 345 347 335 309 302 315 327 288 265 266 275 287 261 219 232 255 282 301 293 32 134 210 194 204 297 307 302 230 292 334 285 351 346 269 247 234 231 226 216 211 226 222 214 209 214 220 224 223 223 222 227 233 241 246 245 249 250 250 250 249 250 250 249 249 249 248 247 247 246 246 245 246 243 240 241 244 243 244 248 252 257 261
345 350 356 358 357 350 348 356 359 8 332 293 299 308 304 292 252 269 268 236 240 284 293 251 157 207 237 252 235 273 306 318 345 296 337 267 267 252 251 238 229 221 219 231 224 221 199 220 211 227 229 228 224 223 225 235 240 241 239 245 245 248 249 251 251 250 250 250 250 249 248 245 246 249 250 250 250 249 246 243 242 245 248 248 257
347 353 356 357 7 11 15 21 21 20 14 13 2 338 312 297 288 256 255 256 255 271 284 294 318 242 225 230 247 248 242 276 273 335 302 316 351 350 315 297 273 244 234 231 228 219 213 205 214 223 229 229 231 232 230 232 232 237 240 244 246 246 247 250 252 253 252 251 250 249 250 249 248 250 252 250 246 244 244 244 242 242 242 244 248
349 353 1 0 18 24 25 29 28 20 23 17 9 358 357 1 7 359 347 347 339 317 316 316 294 304 211 227 240 247 247 239 241 242 272 294 294 301 280 292 293 275 266 249 231 227 227 218 227 229 230 234 229 234 238 241 241 243 248 250 252 251 251 252 255 256 256 255 254 254 255 254 252 250 251 253 253 248 242 240 240 240 239 240 244
360 0 5 15 20 23 24 28 30 27 31 22 16 13 10 353 343 337 330 318 282 270 257 254 246 255 276 259 232 245 250 247 253 249 253 280 281 277 294 309 277 268 275 294 291 264 246 244 239 241 237 240 235 240 243 241 243 243 249 252 255 257 255 255 257 259 259 260 259 258 258 257 258 257 257 257 257 253 249 241 239 240 240 241 243
359 5 20 33 34 32 31 31 26 22 27 24 24 25 20 359 346 333 327 312 305 310 311 316 312 316 303 296 291 246 240 243 233 241 242 241 263 277 292 306 309 310 336 304 285 282 270 259 254 248 247 242 238 245 245 248 247 246 248 251 256 259 259 259 261 263 264 264 264 263 262 261 260 260 259 259 259 255 250 245 243 242 241 241 242
356 9 24 29 35 31 28 25 34 35 27 27 23 359 351 22 15 1 348 332 323 317 310 293 275 264 261 241 245 238 243 249 251 228 231 243 257 266 274 259 256 297 300 315 318 310 295 281 268 259 254 258 253 256 254 256 259 254 256 257 261 262 263 265 265 266 267 268 268 269 269 270 269 266 265 265 264 260 252 249 247 245 244 243 242
11 22 25 18 27 23 19 23 31 19 14 355 16 26 15 344 334 341 310 276 282 287 274 269 268 263 257 255 256 255 251 248 255 247 234 242 251 270 282 294 281 255 296 311 306 290 287 281 265 265 270 273 269 262 262 263 263 265 266 269 269 270 272 274 275 273 274 276 279 277 278 276 271 269 268 268 268 266 261 255 251 248 247 247 245
14 21 18 16 12 17 13 13 21 12 358 359 2 7 3 34 29 353 329 323 313 302 287 290 305 310 324 312 289 280 272 255 252 253 237 246 254 273 264 267 271 285 287 318 301 296 281 273 283 274 280 304 312 311 301 290 295 299 294 287 285 283 282 279 281 281 283 285 286 288 289 287 282 278 277 276 275 271 265 261 258 255 252 250 249
25 29 11 13 21 15 9 7 10 2 8 1 3 358 358 18 33 44 35 33 29 32 22 28 14 0 338 339 350 341 328 292 265 235 248 247 253 249 268 261 251 284 281 257 259 307 302 262 267 346 20 21 12 5 358 340 328 324 320 310 297 297 298 298 299 302 302 300 298 295 294 293 296 296 292 289 284 278 270 264 261 258 257 256 255
27 28 19 23 18 7 14 20 9 5 6 4 0 355 8 12 58 49 45 41 40 41 33 35 28 24 28 36 37 26 15 18 21 19 342 266 255 255 257 301 288 244 258 230 275 236 262 290 8 60 56 7 355 347 335 342 331 326 330 324 316 313 315 315 314 311 307 305 305 305 301 303 303 302 298 292 283 275 272 269 265 263 264 262 259
22 30 23 21 16 13 10 13 11 7 7 2 351 6 11 30 56 53 51 47 50 43 36 44 42 35 36 36 49 35 20 8 14 10 8 354 350 322 283 284 296 298 290 282 241 276 324 325 49 53 23 9 6 358 349 345 354 342 341 341 335 335 329 319 314 314 318 320 317 311 312 311 307 303 301 300 298 291 285 275 265 262 265 268 265
24 26 20 17 13 20 7 9 12 7 3 357 350 355 17 57 59 58 58 51 57 47 35 39 33 34 40 40 41 28 22 13 7 11 2 3 359 358 23 20 342 298 300 296 306 317 334 340 12 19 19 20 8 6 14 20 5 355 357 356 6 6 350 334 328 321 325 323 325 324 321 321 321 319 314 313 311 309 310 312 307 296 288 283 275
30 26 24 19 12 20 13 12 4 7 7 352 341 347 34 65 66 65 57 55 56 43 37 42 31 25 37 37 30 29 11 8 8 1 5 5 1 2 16 23 32 6 310 304 302 336 345 5 36 9 24 32 15 17 19 30 15 5 8 2 9 11 352 360 357 354 351 347 343 338 333 333 331 329 327 324 323 324 324 322 316 312 308 306 296
31 27 22 20 16 14 15 10 5 8 4 360 342 8 34 60 56 59 43 49 55 45 30 30 23 26 31 38 29 28 11 5 1 12 10 6 7 354 7 28 43 48 13 294 295 33 342 39 26 32 39 47 18 17 17 15 16 11 15 8 7 10 11 12 7 10 8 7 9 7 356 351 345 339 337 332 329 334 332 326 323 322 320 315 308
32 29 28 24 16 15 10 12 11 10 12 2 357 19 56 59 55 56 45 46 56 48 38 30 27 25 30 34 26 21 8 10 18 15 11 10 8 4 2 22 37 32 31 20 288 329 30 40 36 38 16 22 25 14 6 3 5 14 9 9 1 6 13 8 3 4 5 8 9 9 6 3 358 351 348 345 344 343 337 333 329 322 316 313 311
28 34 30 23 15 12 10 19 18 16 9 12 2 39 63 65 56 54 48 46 54 45 41 39 33 32 31 31 25 19 8 19 18 12 15 13 11 18 17 16 25 22 21 16 13 11 46 33 38 28 11 11 24 10 2 358 360 2 5 7 2 9 11 9 0 359 4 7 10 6 2 3 4 1 352 350 349 342 337 336 328 322 322 319 314
38 35 31 20 16 12 22 19 21 17 13 18 11 25 66 62 57 49 45 47 53 47 42 42 33 30 24 32 24 15 12 20 18 21 11 13 13 10 18 11 11 11 5 19 359 18 36 27 12 12 15 13 15 13 7 355 357 356 1 359 2 10 6 5 4 4 5 10 9 4 2 1 359 357 357 355 350 346 343 342 342 338 331 325 319
40 43 29 24 19 18 30 28 22 22 9 21 22 49 60 63 63 57 52 53 53 50 48 42 37 26 34 33 24 11 4 23 25 21 15 18 15 20 14 11 16 15 8 12 15 31 30 40 13 8 6 3 19 359 357 355 356 360 1 2 357 3 8 2 6 6 15 6 2 1 1 3 358 352 354 1 359 357 356 355 356 353 348 341 332
44 33 38 28 29 28 33 29 27 23 24 13 42 51 57 58 61 63 62 60 57 53 53 48 37 36 35 34 23 13 10 28 21 21 20 21 25 22 21 16 22 26 24 23 28 36 32 32 18 17 357 359 1 359 356 349 3 9 7 344 352 10 4 4 6 21 15 6 1 360 360 2 2 359 9 15 13 12 12 13 8 4 357 349 346
42 41 33 30 37 33 33 27 22 30 27 29 47 51 53 56 63 65 63 61 56 55 50 46 46 39 38 41 26 20 18 30 20 20 15 21 21 26 27 22 25 23 29 34 35 41 47 40 15 14 5 9 359 357 5 357 349 2 10 8 0 357 1 5 359 27 15 7 2 359 2 7 5 5 16 21 16 13 16 20 15 13 11 7 360
53 46 40 32 39 35 34 29 35 37 34 40 52 57 60 63 66 66 64 62 57 52 45 39 36 37 42 40 36 30 27 32 22 16 16 20 21 26 26 24 24 26 37 38 38 41 48 43 28 6 14 8 356 12 6 359 1 358 357 357 357 5 4 360 15 25 18 10 0 355 5 11 3 358 4 19 14 13 14 19 15 14 14 13 11
60 52 37 44 35 40 33 34 35 35 46 49 58 65 68 70 72 71 68 62 59 53 45 41 31 28 37 40 42 39 37 31 28 20 16 22 25 28 23 25 20 33 38 37 35 39 41 38 33 31 13 14 11 359 358 357 2 33 7 352 359 358 358 2 4 23 16 6 353 351 9 16 358 358 354 5 15 11 11 19 15 13 13 14 13
56 50 44 49 36 45 38 43 36 41 50 56 61 69 67 69 76 72 70 67 63 57 50 42 35 28 23 39 43 48 49 40 37 27 25 31 24 36 21 27 26 36 41 36 35 35 34 34 30 17 16 358 6 2 344 356 9 28 21 7 357 352 350 345 8 19 9 5 354 348 8 12 2 356 354 358 10 9 11 18 14 12 12 11 11
59 49 51 47 51 53 45 44 43 38 47 49 60 77 85 75 74 74 66 62 61 63 57 50 41 35 26 22 51 53 58 54 48 46 47 48 39 39 28 23 34 38 44 44 42 39 36 35 27 16 11 19 15 2 5 14 16 358 341 357 357 359 342 339 13 32 20 359 348 344 9 15 354 354 350 357 4 1 12 21 12 11 9 8 9
60 59 51 55 53 49 55 49 47 44 40 37 61 76 80 92 81 78 72 61 58 54 57 54 47 43 37 23 43 55 53 52 47 42 46 48 51 53 45 32 30 39 45 47 43 38 40 39 30 13 19 21 11 9 6 4 352 344 355 5 6 351 348 343 11 34 19 6 353 354 7 14 355 350 355 355 355 360 4 24 11 7 7 7 7
54 56 56 58 49 42 49 55 55 48 38 41 59 78 81 87 90 81 77 69 59 55 50 48 44 40 37 39 25 43 46 41 36 36 44 45 47 52 53 51 48 45 38 45 44 33 40 45 31 29 26 16 11 3 6 350 355 0 360 2 1 359 12 11 1 350 30 9 355 340 356 11 1 357 349 356 356 353 6 21 10 7 5 6 6
70 66 64 56 53 46 54 61 62 54 52 41 66 77 84 85 89 87 72 71 62 54 50 48 42 38 38 40 37 23 41 50 43 25 37 42 44 46 50 54 51 46 44 45 44 41 34 40 39 32 23 23 4 6 360 357 352 351 1 5 13 5 359 16 12 3 1 5 349 348 342 3 359 354 349 356 352 350 352 21 8 5 2 3 3
84 74 69 70 58 51 60 71 66 51 62 40 62 75 83 84 83 84 73 69 66 54 52 49 44 39 33 40 41 34 21 40 39 34 35 35 40 45 44 44 51 48 43 42 41 48 40 45 46 40 29 10 15 10 2 351 338 353 354 10 6 358 353 0 13 352 11 5 352 357 341 353 360 352 351 351 347 344 346 15 4 4 1 1 2
84 85 78 76 67 62 66 71 74 57 58 33 56 66 76 80 80 82 78 70 62 55 51 48 46 44 40 45 42 36 21 28 33 35 34 37 39 41 41 40 41 40 39 40 39 38 40 43 40 43 23 26 26 4 1 357 2 1 354 3 358 352 349 351 350 352 19 22 12 325 321 357 358 350 351 343 342 335 357 4 2 1 1 1 1
96 91 89 86 77 64 61 68 78 58 38 39 56 62 68 76 75 80 70 72 67 59 50 46 50 51 48 52 54 49 32 32 40 46 45 37 45 48 47 43 38 34 38 36 33 35 35 32 40 40 28 27 25 13 8 8 9 357 349 5 354 337 311 299 235 11 32 32 13 6 6 338 351 348 346 340 336 333 5 357 358 357 360 1 0
84 90 83 82 77 74 60 66 77 61 34 36 59 68 71 73 81 79 75 73 72 62 47 36 38 59 59 54 56 48 37 44 42 45 52 54 56 60 57 47 45 35 38 34 28 34 41 38 38 38 33 28 26 24 22 17 11 5 359 339 338 352 349 16 20 357 22 27 20 10 350 340 354 346 332 334 330 334 4 360 351 354 357 359 0
112 91 86 80 80 89 81 66 83 76 47 36 54 74 80 92 94 81 85 82 72 66 47 27 28 52 82 68 65 63 48 53 49 52 53 64 65 62 59 56 47 43 31 12 15 16 27 34 40 33 30 27 25 27 26 25 25 9 341 24 19 356 10 5 354 3 8 20 17 6 334 332 352 345 332 334 329 325 6 359 347 350 356 358 358
134 128 110 96 92 94 97 88 79 86 61 45 53 66 84 89 99 109 108 101 78 80 75 46 38 33 70 84 82 67 69 67 59 60 52 63 68 60 62 62 51 41 20 360 8 1 14 27 31 40 30 29 28 31 31 27 27 26 32 37 358 351 26 19 356 338 327 28 18 358 341 352 336 349 336 325 308 349 12 358 343 348 356 358 357
132 134 121 112 100 77 90 108 98 89 69 50 51 54 77 93 102 107 115 110 99 81 94 77 51 56 45 68 82 88 89 80 71 70 67 71 74 61 58 64 57 43 9 336 8 5 5 15 18 20 25 26 28 30 29 29 29 31 31 29 9 16 21 15 6 344 346 14 8 357 350 341 349 355 354 343 349 323 13 354 347 352 355 355 354